FloripaSat 1
1 44885U 19093G   25186.78891337  .00004983  00000-0  41884-3 0  9991
2 44885  97.8161 274.4446 0012656 116.3100 243.9424 14.98694891300679
RS-44
1 44909U 19096E   25186.58796398  .00000028  00000-0  72399-4 0  9992
2 44909  82.5195 209.9986 0216462 234.5962 123.4752 12.79741578258014
UPMSat 2
1 46276U 20061E   25186.17566227  .00079762  00000-0  60929-3 0  9992
2 46276  97.2421 261.4762 0002230 148.9295 211.2101 15.71943122269487
SALSAT
1 46495U 20068K   25186.50423724  .00006020  00000-0  25851-3 0  9995
2 46495  97.8610 165.7368 0013039  75.6375 284.6306 15.23030670262473
CubeSX-Sirius-HSE
1 47951U 21022V   25157.62701764  .07883385  25648-5  89537-3 0  9993
2 47951  97.4004  72.1904 0010275 223.9924 136.0557 16.36879307233400
CubeSX-HSE
1 47952U 21022W   25157.69972699  .06655353  25454-5  93288-3 0  9992
2 47952  97.3980  72.5414 0010307 219.3637 140.6911 16.34906352233436
GRBAlpha
1 47959U 21022AD  25160.45426279  .07940347  25506-5  90589-3 0  9995
2 47959  97.3899  75.6235 0011032 227.2558 132.7812 16.36806138232695
TUBIN
1 48900U 21059X   25186.80471121  .00036804  00000-0  41416-3 0  9994
2 48900  97.6756 358.2054 0004255 135.2330 224.9271 15.62489034224134
LEDSAT
1 49069U 21073D   25186.75834344  .00069137  00000-0  73001-3 0  9991
2 49069  97.3878 269.4517 0006890 336.6837  23.4108 15.63967248215529
CUTE
1 49263U 21088D   25186.74253574  .00013359  00000-0  25876-3 0  9994
2 49263  97.4503 263.7708 0009328 141.1638 219.0284 15.47795319208471
TeikyoSat 4
1 49396U 21102B   25186.56762962  .00001686  00000-0  11412-3 0  9995
2 49396  97.4089 224.0570 0013715  49.9604 310.2826 15.07732691200464
Z-Sat
1 49399U 21102E   25186.84852733  .00003505  00000-0  19263-3 0  9999
2 49399  97.3788 227.5870 0018322  18.7588 341.4315 15.14593735200952
KOSEN 1
1 49402U 21102H   25186.66666152  .00005919  00000-0  27252-3 0  9990
2 49402  97.3693 231.0242 0015217 354.2468   5.8590 15.20578266201259
HO-113
1 50466U 21131B   25186.87208089  .00000364  00000-0  12739-3 0  9991
2 50466  98.5107 276.0969 0005223  66.9035 293.2704 14.40839391185231
Foresail-1
1 52766U 22057AL  25176.64799660  .13857605  27391-5  25307-3 0  9992
2 52766  97.5832 331.2310 0012137 233.7199 258.4922 16.46795272172486
SNUGLITE 2
1 52899U 22065F   25186.33860223  .00000877  00000-0  17928-3 0  9999
2 52899  98.1718 328.0658 0008329  41.0627 319.1200 14.63261713160257
UmKA 1 (RS40S)
1 57172U 23091G   25186.88582129  .00004435  00000-0  23675-3 0  9994
2 57172  97.5569 242.1324 0012965 239.6403 120.3548 15.15586766111469
CubeBel-2 (EU11S)
1 57175U 23091K   25186.84547315  .00007638  00000-0  36026-3 0  9993
2 57175  97.5568 243.4011 0010668 246.4012 113.6103 15.19714749111547
VERONIKA
1 58261U 23174F   25186.77467425  .00205650  00000-0  11714-2 0  9997
2 58261  97.4088 274.6721 0005073 253.5199 106.5510 15.78358270 92801
ENSO
1 58470U 23185J   25186.85652937  .00048603  00000-0  63799-3 0  9998
2 58470  97.3722 262.8650 0004785 348.0597  12.0545 15.58380920 89123
EIRSAT-1
1 58472U 23185L   25186.83845972  .00123655  00000-0  90030-3 0  9990
2 58472  97.3664 265.2562 0002516 308.2121  51.8916 15.72944785 89281
SONATE-2
1 59112U 24043Q   25186.29053445  .00014540  00000-0  41007-3 0  9994
2 59112  97.5159 318.0010 0011099  29.6809 330.5063 15.36454581 74286
MO-122
1 60209U 24125G   25186.55934665  .00015128  00000-0  41898-3 0  9996
2 60209  97.2775  37.8968 0019454  48.7088 311.5828 15.36872111 55941
GRBBeta
1 60237U 24128C   25186.88646454  .00003208  00000-0  24671-3 0  9998
2 60237  61.9925 347.8215 0053827  63.2985 297.3602 15.02824491 54150
Curium One
1 60242U 24128H   25186.87846169  .00005667  00000-0  39487-3 0  9990
2 60242  61.9823 345.7480 0053747  59.5608 301.0778 15.05437606 54197
ROBUSTA-3A
1 60243U 24128J   25186.62359149  .00005744  00000-0  40570-3 0  9992
2 60243  61.9896 347.5569 0052684  57.2136 303.4016 15.04959279 54146
CatSat
1 60246U 24125J   25186.58059967  .00008350  00000-0  27554-3 0  9995
2 60246  97.2574  36.8329 0041956   4.0553 356.1020 15.30803078 53962
HYPERVIEW-1G (RS66S)
1 61772U 24199AP  25186.86604490  .00017214  00000-0  48542-3 0  9998
2 61772  97.3509  55.6808 0015335  98.7830 261.5152 15.36357811 80990
AO-123
1 61781U 24199AY  25186.89714299  .00005305  00000-0  19231-3 0  9991
2 61781  97.3523  54.3097 0017520 103.4990 256.8203 15.28643683 80902
ZIMSAT 2
1 61783U 24199BA  25186.88889999  .00031806  00000-0  73708-3 0  9996
2 61783  97.3483  56.5282 0015040  96.2638 264.0323 15.42247177 84207
HADES-R (SO-124)
1 62690U 25009CK  25186.18357588  .00035098  00000-0  11842-2 0  9999
2 62690  97.4090 266.9148 0002019  36.2261 323.9116 15.30616569 26063
HYDRA-T
1 62692U 25009CM  25186.16448691  .00031582  00000-0  10569-2 0  9994
2 62692  97.4089 266.9393 0001644  33.9428 326.1918 15.30904540 26061
JINJUSat 1B
1 63210U 25052A   25186.51802448  .00009516  00000-0  43075-3 0  9993
2 63210  97.4393  80.3172 0003017 206.3144 153.7938 15.21099963 17190
NUSHSAT 1
1 63211U 25052B   25186.70596280  .00010278  00000-0  46111-3 0  9990
2 63211  97.4386  80.5105 0002855 211.6132 148.4933 15.21383284 17228
TEVEL2-4
1 63213U 25052D   25186.65904366  .00010002  00000-0  45307-3 0  9995
2 63213  97.4299  80.3002 0001616 233.5795 126.5292 15.21063991 17213
TEVEL2-5
1 63214U 25052E   25186.19947341  .00010732  00000-0  48629-3 0  9995
2 63214  97.4304  79.8456 0001572 236.1916 123.9170 15.21033631 17148
TEVEL2-6
1 63215U 25052F   25186.20228813  .00010541  00000-0  47826-3 0  9990
2 63215  97.4301  79.8428 0001591 239.3011 120.8068 15.20993148 17146
TEVEL2-1
1 63217U 25052H   25186.21705802  .00009997  00000-0  45672-3 0  9991
2 63217  97.4277  79.7874 0001585 271.5177  88.5877 15.20770658 17145
TEVEL2-2
1 63218U 25052J   25186.67792967  .00009140  00000-0  41775-3 0  9990
2 63218  97.4277  80.2424 0001663 269.7659  90.3386 15.20779670 17212
TEVEL2-3
1 63219U 25052K   25186.21756234  .00009961  00000-0  45513-3 0  9993
2 63219  97.4276  79.7876 0001635 273.4753  86.6295 15.20765680 17147
TEVEL2-8
1 63237U 25052AD  25186.63265687  .00009055  00000-0  42868-3 0  9990
2 63237  97.4342  80.0907 0006153 288.5685  71.4881 15.19553333 17198
TEVEL2-9
1 63238U 25052AE  25186.70191694  .00009036  00000-0  42857-3 0  9992
2 63238  97.4342  80.1535 0006203 288.1034  71.9524 15.19489313 17204
TEVEL2-7
1 63239U 25052AF  25186.63859771  .00009182  00000-0  43590-3 0  9999
2 63239  97.4340  80.0838 0006224 288.7200  71.3358 15.19454780 17199
HYDRA-W
1 63490U 25052BL  25186.48434588  .00022038  00000-0  90114-3 0  9995
2 63490  97.4290  80.3664 0009207 282.5816  77.4391 15.24327414 17206
HADES-ICM (SO-125)
1 63492U 25052BN  25186.17873404  .00023981  00000-0  99464-3 0  9992
2 63492  97.4297  80.0185 0009698 288.9467  71.0719 15.23824882 17154
